This is the latest recevied weather packets stored in our database for station/object vk4zu-13. If no packets are shown the sender has not sent any weather packets the latest 10 day(s).
| Time | Temp. | Humidity | Pressure | Rain* | Wind** | Luminosity | Snow |
|---|---|---|---|---|---|---|---|
| 1777521323 | 23.33° C | 73% | 1024.7 hPa | 0 mm | - | 209 W/m² | - |
| 1777521252 | 23.33° C | 73% | 1024.8 hPa | 0 mm | - | 209 W/m² | - |
| 1777521182 | 23.33° C | 74% | 1024.6 hPa | 0 mm | - | 241 W/m² | - |
| 1777521113 | 23.33° C | 71% | 1024.6 hPa | 0 mm | - | 264 W/m² | - |
| 1777521047 | 23.33° C | 71% | 1024.7 hPa | 0 mm | - | 264 W/m² | - |
| 1777520987 | 23.33° C | 73% | 1024.7 hPa | 0 mm | - | 271 W/m² | - |
| 1777520928 | 23.33° C | 72% | 1024.8 hPa | 0 mm | - | 279 W/m² | - |
| 1777520862 | 23.33° C | 76% | 1024.7 hPa | 0 mm | - | 279 W/m² | - |
| 1777520803 | 23.33° C | 74% | 1024.7 hPa | 0 mm | - | 279 W/m² | - |
| 1777520741 | 23.33° C | 77% | 1024.8 hPa | 0 mm | - | 279 W/m² | - |
| 1777520679 | 23.33° C | 77% | 1024.7 hPa | 0 mm | - | 169 W/m² | - |
| 1777520641 | 23.33° C | 76% | 1024.7 hPa | 0 mm | - | 141 W/m² | - |
| 1777520548 | 23.33° C | 76% | 1024.7 hPa | 0 mm | - | 125 W/m² | - |
| 1777520477 | 23.33° C | 77% | 1024.7 hPa | 0 mm | - | 116 W/m² | - |
| 1777520407 | 23.33° C | 75% | 1024.6 hPa | 0 mm | - | 114 W/m² | - |
| 1777520341 | 23.33° C | 74% | 1024.6 hPa | 0 mm | - | 132 W/m² | - |
| 1777520267 | 23.33° C | 74% | 1024.6 hPa | 0 mm | - | 148 W/m² | - |
| 1777520199 | 23.33° C | 73% | 1024.6 hPa | 0 mm | - | 176 W/m² | - |
| 1777520127 | 23.33° C | 75% | 1024.6 hPa | 0 mm | - | 197 W/m² | - |
| 1777520057 | 23.33° C | 75% | 1024.6 hPa | 0 mm | - | 272 W/m² | - |
| 1777519987 | 23.33° C | 71% | 1024.8 hPa | 0 mm | - | 227 W/m² | - |
| 1777519917 | 23.33° C | 72% | 1024.7 hPa | 0 mm | - | 281 W/m² | - |
| 1777519847 | 23.89° C | 72% | 1024.7 hPa | 0 mm | - | 373 W/m² | - |
| 1777519777 | 23.89° C | 74% | 1024.6 hPa | 0 mm | - | 911 W/m² | - |
| 1777519715 | 23.89° C | 75% | 1024.7 hPa | 0 mm | - | 911 W/m² | - |
* Rain latest hour (hover to see other rain measurements)
** Current wind speed in m/s (hover to see current wind gust speed)